Location: Caser�o La Pineda
(41.2677°N, 1.9887°E)
Time: 05:12:03
(UTC+00:00)

Daily predictions for brighter satellites

Satellite Brightness Start Highest point End
(mag) Time Altitude Azimuth Time Altitude Azimuth Time Altitude Azimuth
ATLAS 5 CENTAUR R/B 3.6 00:00:06 10° NNW 00:05:16 36° NE 00:08:40 22° E
Cosmos 2360 Rocket 3.4 00:05:41 10° NW 00:09:32 30° W 00:09:32 30° W
Nadezhda 1 Rocket 4.2 00:04:32 10° N 00:10:54 62° E 00:11:32 59° ESE
USA 229 DEB 4.1 00:10:55 10° NNW 00:18:17 70° NE 00:21:07 42° ESE
USA 229 4.1 00:11:01 10° NNW 00:18:23 69° NE 00:21:17 41° ESE
Lacrosse 5 3.9 00:21:12 18° E 00:21:12 18° E 00:23:03 10° ENE
Resurs 1-4 Rocket 4.0 00:15:29 10° NE 00:19:04 18° E 00:19:08 18° E
Cosmos 2322 4.0 00:14:01 10° NNW 00:18:54 56° WNW 00:18:54 56° WNW
Cosmos 1110 Rocket 4.2 00:18:46 10° NNW 00:23:33 71° N 00:23:33 71° N
Meteor 1-19 Rocket 4.4 00:19:34 10° NNW 00:24:41 60° WNW 00:24:41 60° WNW
Meteor 1-14 Rocket 4.1 00:26:17 80° N 00:26:17 80° N 00:31:34 10° N
Cosmos 2297 Rocket 2.8 00:31:41 46° E 00:31:41 46° E 00:36:38 10° NE
Cosmos 1331 Rocket 4.2 00:29:09 10° NNW 00:33:42 67° NNW 00:33:42 67° NNW
Cosmos 2237 Rocket 2.9 00:32:31 10° NNW 00:38:01 48° ENE 00:39:18 41° E
NOSS 3-1 (A) 4.1 00:31:01 10° NW 00:38:46 88° ENE 00:41:59 44° SE
BREEZE-M DEB (TANK) 3.8 00:30:47 10° WSW 00:39:19 64° NNW 00:42:42 10° ENE
CZ-4 R/B 4.5 00:35:15 10° NNE 00:39:36 51° ENE 00:39:36 51° ENE
ARGOS Delta rocket 4.4 00:36:10 10° NNE 00:40:01 49° ENE 00:40:01 49° ENE
Cosmos 2227 Rocket 2.9 00:42:17 42° E 00:42:17 42° E 00:47:20 10° NE
Cosmos 2242 Rocket 4.3 00:46:38 10° N 00:50:12 50° NE 00:50:12 50° NE
ASTEX 1 3.9 00:51:41 50° E 00:51:43 50° E 00:56:26 10° N
Meteor 2-4 Rocket 3.8 00:48:14 10° NNW 00:54:04 65° W 00:54:04 65° W
CZ-2D R/B 3.0 00:51:43 10° NNE 00:56:45 39° E 00:57:06 39° ESE
ADEOS II 3.9 00:56:09 10° NE 00:59:55 20° E 01:01:02 18° ESE
Cosmos 1269 Rocket 4.0 01:00:30 79° NNW 01:00:30 79° NNW 01:05:37 10° NNE
SL-16 R/B 4.0 00:56:39 10° N 01:01:27 27° NE 01:06:14 10° ESE
COSMOS 2428 3.6 00:56:14 10° NW 01:00:22 36° WNW 01:00:22 36° WNW
Cosmos 2219 Rocket 3.6 01:03:00 10° NW 01:06:11 25° WNW 01:06:11 25° WNW
Cosmos 1869 Rocket 4.0 01:11:10 61° NE 01:11:10 61° NE 01:15:04 10° NNE
Cosmos 1743 3.8 01:19:32 41° NE 01:19:32 41° NE 01:22:23 10° NNE
Cosmos 1340 Rocket 4.2 01:20:53 31° NW 01:20:53 31° NW 01:23:25 10° N
Cosmos 1302 Rocket 4.1 01:18:29 10° NNW 01:23:07 59° WNW 01:23:07 59° WNW
Cosmos 1709 Rocket 4.1 01:23:31 53° WSW 01:24:24 58° W 01:30:40 10° N
Helios 1A 3.7 01:27:31 45° NW 01:27:31 45° NW 01:30:38 10° NNW
NOSS 0 Rocket 4.2 01:21:04 10° NW 01:26:47 47° W 01:26:47 47° W
Cosmos 2219 3.2 01:28:53 64° WSW 01:29:35 72° WNW 01:35:22 10° NNE
Okean 3 3.7 01:26:29 10° N 01:30:10 64° NNW 01:30:10 64° NNW
Okean 1-7 4.1 01:27:34 10° NNW 01:30:27 35° NW 01:30:27 35° NW
Timation 2 Rocket 3.7 01:31:17 64° S 01:32:16 84° ESE 01:38:21 10° NNE
Cosmos 1066 Rocket 4.2 01:29:26 10° NNW 01:35:17 73° W 01:36:06 63° SSW
UNK 3.7 01:41:38 72° SE 01:42:04 82° ENE 01:46:46 10° N
SL-16 R/B 2.4 01:44:52 47° S 01:46:48 83° WSW 01:53:00 10° NNW
Cosmos 2184 Rocket 4.0 01:45:03 47° S 01:46:57 78° E 01:53:14 10° N
Meteor 1-11 Rocket 4.1 01:49:09 42° W 01:49:50 44° WNW 01:55:08 10° N
Helios 1B rocket 2.4 01:45:46 10° NNE 01:49:49 77° E 01:49:49 77° E
ATLAS 5 CENTAUR R/B 2.7 01:44:28 10° NW 01:50:05 47° WSW 01:50:05 47° WSW
Cosmos 2082 3.7 01:48:53 57° S 01:50:05 79° ESE 01:55:50 10° NNE
IDEFIX/ARIANE 42P 3.9 01:46:22 10° NE 01:50:57 31° E 01:53:13 22° SE
Cosmos 2154 Rocket 4.3 01:51:28 34° SSE 01:54:04 60° E 02:00:10 10° NNE
Cosmos 2251 Rocket 3.4 01:54:37 60° S 01:55:36 84° ESE 02:00:56 10° NNE
Meteor 1-29 4.1 01:53:44 10° NNE 01:56:32 37° E 01:56:32 37° E
Cosmos 1980 4.4 01:52:31 10° NW 01:57:05 35° W 01:57:05 35° W
Resurs 1-4 Rocket 2.3 01:54:02 10° N 01:59:14 56° WNW 02:00:13 48° WSW
Cosmos 1842 3.8 01:57:05 10° N 02:00:51 53° E 02:01:26 47° ESE
Lacrosse 5 2.2 02:00:23 45° W 02:01:37 58° NW 02:06:38 10° NE
Cosmos 2084 Rocket 3.6 01:59:49 10° NW 02:03:25 57° WNW 02:03:25 57° WNW
Cosmos 1378 Rocket 4.5 02:05:22 10° N 02:09:35 45° ENE 02:11:52 24° SE
ADEOS Rocket 2.7 02:08:20 42° S 02:10:16 72° WSW 02:15:46 10° NNW
Cosmos 2074 Rocket 4.0 02:09:07 43° SW 02:11:08 66° W 02:17:21 10° N
Cosmos 2297 Rocket 3.6 02:13:29 22° W 02:15:29 27° NW 02:20:16 10° N
Cosmos 1140 Rocket 4.1 02:14:50 30° SSE 02:17:03 50° ESE 02:22:06 10° NNE
NPP 4.1 02:12:57 10° N 02:18:08 49° WNW 02:19:39 38° WSW
Cosmos 1356 Rocket 3.9 02:20:09 37° SSE 02:21:21 52° E 02:25:16 10° NNE
Cosmos 2237 Rocket 3.5 02:17:16 10° NW 02:21:04 24° W 02:21:04 24° W
SL-8 R/B 3.8 02:21:22 49° S 02:22:18 60° SE 02:27:02 10° ENE
Cosmos 1733 Rocket 3.2 02:22:03 52° WSW 02:22:45 59° W 02:27:10 10° N
AQUA 4.2 02:19:30 10° N 02:24:04 47° WNW 02:25:07 40° WSW
NOSS 3-3 (A) 4.3 02:22:16 31° S 02:24:44 52° ESE 02:30:49 10° NE
NOSS 3-3 (C) 4.3 02:22:23 31° S 02:24:51 52° ESE 02:30:54 10° NE
DELTA 2 DEB (DPAF) 4.3 02:22:42 25° SSE 02:25:11 70° ENE 02:29:37 10° N
Cosmos 2227 Rocket 3.5 02:24:05 23° W 02:26:12 29° NW 02:31:06 10° N
ARIANE 5 R/B 3.9 02:25:27 10° NNE 02:30:06 33° E 02:34:21 12° SSE
CZ-2D R/B 3.4 02:32:05 10° N 02:36:36 28° WNW 02:38:25 23° W
Meteor 2-9 Rocket 4.2 02:37:34 35° SW 02:39:35 58° WNW 02:44:52 10° N
ADEOS II 2.4 02:34:47 10° N 02:39:53 51° WNW 02:41:58 32° SW
SWARM A 4.2 02:40:28 50° SSE 02:41:14 78° E 02:44:33 10° N
Okean 2 3.3 02:38:52 10° N 02:43:03 80° W 02:44:58 31° S
Cosmos 2227 4.5 02:39:56 25° S 02:43:09 63° ESE 02:48:43 10° NNE
IRS-1D 3.6 02:40:12 10° N 02:45:05 61° WNW 02:47:18 32° SW
CZ-4C R/B 3.8 02:41:43 13° SSE 02:45:11 63° ENE 02:49:24 10° N
SL-16 R/B 2.5 02:40:23 10° NW 02:45:45 45° WSW 02:48:30 26° SSW
CZ-4C R/B 3.3 02:39:40 10° NNW 02:47:03 72° NE 02:55:33 10° SE
IRS-1C 4.5 02:42:04 10° NNE 02:47:22 61° ESE 02:51:21 18° S
Cosmos 2263 Rocket 2.2 02:49:22 27° SSW 02:52:36 90° WNW 02:58:20 10° NNE
Iridium 4 Rocket 3.9 02:47:55 10° NNW 02:53:16 53° W 02:56:32 25° SSW
Cosmos 2341 Rocket 4.0 02:51:57 19° S 02:56:37 87° W 03:02:53 10° N
Meteor 1-28 Rocket 3.7 02:56:40 35° WSW 02:57:14 37° W 03:00:44 10° NNW
Cosmos 1782 Rocket 3.9 02:54:46 17° S 02:57:57 62° E 03:02:16 10° NNE
Cosmos 2218 Rocket 4.4 02:53:11 10° S 02:59:29 66° E 03:05:46 10° NNE
Cosmos 407 Rocket 3.7 03:00:28 26° SW 03:03:22 58° WNW 03:08:34 10° NNE
GEOS 3 Rocket 4.1 03:02:47 10° SE 03:08:05 67° NE 03:13:22 10° NNW
Cosmos 1805 4.3 03:05:34 10° SSE 03:09:15 44° E 03:12:59 10° NNE
In-Cosmos 22 4.2 03:03:53 10° NNW 03:09:40 76° W 03:15:22 10° S
ATLAS CENTAUR R/B 1.2 03:09:13 26° SSW 03:11:13 74° ESE 03:15:08 10° NE
Cosmos 1975 4.2 03:10:02 21° W 03:11:14 24° WNW 03:14:35 10° NNW
Iridium 45 4.4 03:10:29 20° S 03:12:50 82° W 03:16:21 10° N
ALOS 4.1 03:11:30 10° NE 03:15:32 28° E 03:19:32 10° SSE
KORONAS-FOTON 4.0 03:11:45 10° N 03:15:41 77° E 03:19:35 10° SSE
Spot 1 3.9 03:13:58 10° S 03:18:08 66° WSW 03:22:13 10° NNW
Cosmos 1461 3.9 03:16:06 20° WSW 03:18:49 40° NW 03:23:02 10° NNE
USA 215 3.4 03:13:54 10° NE 03:20:25 67° SE 03:25:56 15° SW
Cosmos 1707 3.5 03:19:19 10° NNW 03:22:47 33° W 03:24:46 20° SW
Cosmos 1238 Rocket 4.1 03:22:22 15° W 03:22:56 16° WNW 03:25:02 10° NNW
SL-08 R/B 3.4 03:18:34 10° SSE 03:23:30 89° E 03:28:30 10° NNW
Cosmos 1943 3.2 03:19:55 10° NNW 03:25:39 89° WSW 03:31:21 10° SSE
IRS-P3 4.3 03:22:40 10° N 03:27:54 59° WNW 03:32:28 14° SSW
IDEFIX/ARIANE 42P 3.5 03:25:55 10° N 03:30:28 32° WNW 03:34:01 15° WSW
SL-16 R/B 4.3 03:29:57 11° W 03:31:14 11° W 03:33:12 10° WNW
SL-24 R/B - RUBIN 2 4.3 03:29:09 10° NNW 03:34:06 61° NE 03:38:32 10° SE
Cosmos 1733 3.2 03:33:23 10° S 03:37:13 85° E 03:41:05 10° N
Cosmos 1766 3.7 03:34:00 10° S 03:37:49 64° E 03:41:42 10° NNE
Cosmos 1300 Rocket 3.7 03:34:30 10° S 03:38:47 76° E 03:43:09 10° N
CZ-2C R/B 2.3 03:35:10 10° NNE 03:39:45 80° ESE 03:44:22 10° S
Meteor 1-12 Rocket 4.3 03:36:43 10° SSW 03:42:18 65° WNW 03:47:59 10° N
Cosmos 1975 Rocket 3.1 03:39:48 10° NNW 03:44:08 58° W 03:48:24 10° S
Cosmos 1900 4.3 03:40:41 12° SSW 03:45:21 83° WNW 03:50:20 10° NNE
Lacrosse 5 4.0 03:42:03 10° WNW 03:45:33 18° NNW 03:49:03 10° NNE
Cosmos 2344 4.1 03:44:48 11° WSW 03:51:41 47° NW 03:59:14 10° NNE
Cosmos 1484 Rocket 4.2 03:48:11 10° NNE 03:51:54 38° E 03:55:38 10° SSE
Cosmos 1821 Rocket 4.2 03:46:48 10° S 03:52:55 74° E 03:59:02 10° N
BREEZE-M DEB (TANK) 4.1 03:47:05 10° W 03:54:52 42° NNW 03:57:43 10° NE
Cosmos 1340 3.4 03:52:56 10° NNW 03:56:20 33° W 03:59:42 10° SSW
Meteor 2-5 Rocket 4.3 03:50:42 10° N 03:56:37 66° ENE 04:02:24 10° SSE
Cosmos 1400 Rocket 3.1 03:54:05 10° SSW 03:57:48 47° WNW 04:01:35 10° N
USA 290 2.5 03:54:51 10° NNW 03:58:06 71° ENE 04:01:18 10° SSE
CZ-3 Stage 3 3.3 03:55:22 10° SSW 03:58:06 20° SE 04:04:05 10° E
CZ-3B R/B 4.4 03:51:13 10° SW 03:58:09 21° S 04:02:22 10° SE
BREEZE-M DEB (TANK) 4.1 03:56:24 10° W 03:58:31 25° NNW 04:00:42 10° NE
Cosmos 1850 Rocket 4.2 03:54:26 10° SSW 03:59:44 76° ESE 04:05:01 10° NNE
Cosmos 1626 2.4 03:57:41 10° NNW 04:01:15 47° W 04:04:47 10° SSW
Cosmos 468 Rocket 4.0 03:59:33 10° NNW 04:04:53 87° WSW 04:10:08 10° SSE
Cosmos 1315 Rocket 3.6 04:01:03 10° S 04:05:03 57° E 04:09:04 10° NNE
CZ-4B R/B 4.1 04:01:15 10° N 04:05:40 36° WNW 04:10:00 10° SW
Cosmos 1844 Rocket 2.9 04:00:42 10° SSW 04:06:19 77° ESE 04:12:00 10° NNE
Cosmos 1674 3.9 04:03:16 10° NW 04:06:23 24° W 04:09:30 10° SW
PSLV R/B 3.7 04:03:01 10° NNE 04:07:19 76° E 04:11:34 10° S
ARIANE 5 R/B 3.5 04:04:37 10° N 04:09:06 30° WNW 04:13:35 10° SW
NOSS 3-4 (A) 4.4 04:02:05 10° NNW 04:09:08 70° NE 04:16:59 10° SE
NOSS 3-4 (C) 4.4 04:02:11 10° NNW 04:09:15 69° NE 04:17:07 10° SE
FENGYUN 3A 3.7 04:07:20 10° N 04:12:45 73° WNW 04:18:07 10° SSW
